SCP
0 0 0 0 1 0 0 -0 -0 -0 -0 -0 -0 0 0 0 0 0 -0 -0 0 -0 0 0 0 0 0 0 0 0 0 0 0 0 0 0 0 0 -0 0 0 -0 -0 -0 -0 -0 0 -0 -0
0 0 0 1 1 -0 0 -0 -0 -0 -0 0 0 0 -0 0 0 0 0 0 0 -0 0 0 0 0 0 0 -0 0 0 0 0 0 0 0 0 0 -0 -0 0 -0 -0 -0 -0 -0 -0 -0 -0
0 1 1 1 -0 -0 0 -0 -0 -0 -0 -0 -0 0 -0 -0 -0 0 0 0 0 -0 0 0 0 0 0 0 0 0 0 0 0 0 0 0 0 -0 -0 -0 -0 -0 -0 -0 0 0 -0 -0 -0
1 2 2 0 -0 -0 0 -0 -0 -0 -0 0 0 0 0 -0 0 -0 -0 -0 0 0 0 0 0 0 0 0 0 0 0 0 0 0 0 0 0 -0 -0 -0 -0 -0 -0 -0 -0 0 -0 -0 -0
2 3 0 0 0 -0 -0 0 0 -0 0 0 -0 -0 0 0 0 -0 0 -0 -0 0 0 0 0 0 0 0 0 0 0 0 0 0 0 0 -0 0 -0 0 0 0 0 0 0 -0 -0 -0 -0
2 1 0 0 0 0 0 0 0 0 0 -0 -0 -0 -0 0 -0 0 -0 -0 -0 0 -0 0 0 0 0 0 0 0 0 0 -0 -0 -0 0 0 0 0 0 0 0 0 0 0 0 -0 -0 -0
5 0 0 0 0 0 0 0 0 0 -0 0 -0 -0 -0 -0 -0 -0 0 -0 0 -0 -0 0 0 0 0 0 0 0 -0 -0 -0 -0 0 -0 -0 -0 -0 -0 -0 -0 -0 0 -0 -0 -0 -0 -0
1 0 0 0 0 0 0 0 -0 0 -0 0 -0 -0 -0 -0 -0 -0 -0 0 0 0 -0 -0 -0 0 -0 -0 0 -0 -0 -0 0 -0 -0 -0 -0 -0 -0 -0 -0 -0 0 -0 -0 -0 -0 -0 -0
1 0 -0 -0 0 0 0 0 0 -0 0 0 -0 -0 -0 -0 -0 -0 -0 -0 -0 0 0 0 -0 -0 -0 -0 -0 -0 -0 -0 -0 -0 -0 -0 -0 -0 -0 -0 -0 -0 -0 0 -0 -0 -0 -0 -0
0 -0 -0 -0 0 0 0 0 0 0 0 0 0 -0 -0 -0 -0 -0 -0 -0 -0 -0 -0 -0 -0 -0 -0 0 -0 -0 -0 -0 -0 -0 -0 -0 -0 -0 -0 -0 -0 -0 -0 -0 -0 -0 -0 -0 0
0 -0 0 0 0 0 0 0 0 0 0 0 -0 -0 -0 -0 -0 -0 -0 -0 -0 -0 -0 -0 0 0 0 0 0 0 0 0 -0 -0 -0 -0 -0 -0 0 0 0 -0 -0 -0 -0 -0 -0 -0 0
-0 -0 0 0 0 0 0 0 0 0 0 0 -0 -0 -0 -0 -0 -0 -0 -0 -0 -0 -0 -0 0 0 0 0 -0 0 0 -0 -0 -0 -0 0 0 -0 0 0 0 0 0 0 -0 0 -0 -0 0
-0 0 0 0 0 0 0 0 0 0 0 0 -0 -0 -0 -0 -0 -0 -0 -0 -0 -0 0 0 -0 -0 0 -0 0 0 0 0 0 0 0 0 0 -0 0 0 0 0 0 -0 0 -0 0 0 0
-0 0 -0 0 0 0 0 0 0 0 0 0 -0 -0 -0 -0 -0 -0 -0 -0 -0 -0 -0 -0 -0 -0 -0 0 0 0 0 0 0 0 0 0 0 0 0 -0 -0 0 0 0 0 0 0 -0 0
-0 -0 -0 -0 -0 0 0 0 0 0 0 0 -0 -0 -0 -0 -0 -0 -0 -0 -0 -0 -0 -0 -0 -0 -0 -0 -0 -0 -0 -0 0 0 0 0 0 0 0 0 0 -0 -0 -0 0 0 0 -0 -0
-0 -0 0 -0 0 0 -0 0 0 0 0 0 -0 -0 -0 -0 -0 -0 -0 -0 -0 -0 -0 0 -0 -0 -0 -0 -0 -0 0 0 0 0 0 0 0 -0 0 0 -0 -0 -0 -0 0 -0 -0 -0 -0
-0 -0 -0 -0 -0 0 0 0 0 0 0 0 0 -0 -0 -0 -0 -0 -0 -0 -0 0 -0 -0 -0 -0 -0 -0 -0 0 0 0 -0 0 0 0 -0 -0 0 0 0 0 0 -0 0 -0 0 0 -0
-0 0 -0 0 0 0 0 0 -0 0 0 0 0 -0 -0 -0 -0 -0 -0 -0 0 -0 -0 0 -0 0 -0 0 0 0 0 -0 -0 0 0 0 0 -0 -0 0 0 0 0 -0 -0 -0 0 0 -0
0 0 -0 0 0 -0 0 0 -0 -0 -0 0 0 -0 -0 -0 -0 -0 -0 -0 -0 -0 -0 -0 -0 -0 0 0 0 -0 -0 0 0 0 0 0 0 0 -0 -0 0 -0 -0 -0 -0 -0 -0 0 -0
0 0 0 0 0 -0 -0 -0 0 -0 -0 -0 -0 -0 -0 -0 -0 -0 -0 -0 -0 -0 -0 -0 -0 -0 -0 -0 -0 -0 0 0 0 0 0 0 -0 -0 -0 -0 -0 -0 0 -0 0 0 0 0 0
0 -0 0 0 0 -0 -0 0 -0 -0 -0 -0 -0 -0 -0 -0 -0 -0 -0 -0 -0 -0 -0 -0 -0 -0 -0 -0 0 0 0 0 0 0 -0 -0 0 -0 -0 -0 0 0 0 0 -0 0 0 0 0
-0 0 0 0 -0 -0 0 -0 -0 0 0 -0 -0 -0 -0 -0 -0 -0 -0 -0 -0 -0 -0 -0 -0 -1 -0 -0 -0 -0 -0 0 0 0 -0 -0 0 -0 -0 -0 -0 -0 0 0 0 0 0 0 0
0 0 0 0 0 -0 -0 0 0 -0 0 -0 -0 0 -0 -0 -0 -0 -0 -0 -0 -0 -0 -0 -1 -1 -1 -1 -0 -0 -0 -0 -0 0 -0 -0 -0 0 -0 -0 -0 0 -0 0 0 0 0 0 0
0 0 0 0 0 0 -0 -0 0 0 -0 -0 0 0 0 -0 -0 0 -0 -0 -0 -0 -0 -0 -1 -1 -1 -1 -1 -1 -0 -0 -0 -0 -0 -0 0 0 -0 -0 0 0 0 0 0 0 0 0 0
0 0 0 0 0 0 -0 -0 -0 0 0 0 0 0 0 0 -0 -0 -0 -0 -0 -0 -0 -0 -1 -1 -1 -1 -1 -1 -0 -0 -0 -0 -0 0 -0 0 -0 0 0 0 0 0 0 0 0 0 0
0 0 0 0 0 0 -0 0 0 0 0 0 0 0 0 0 -0 -1 -0 -0 -0 -0 -1 -0 -1 -1 -1 -1 -1 -0 -0 -0 -0 -0 0 0 0 0 0 0 0 0 0 0 0 0 0 0 0
0 0 0 0 0 0 0 0 0 0 0 0 0 0 0 0 -0 -1 -0 -0 -0 -0 -0 -1 -1 -1 -0 -0 0 0 0 0 0 0 0 0 0 0 0 0 0 0 0 0 0 0 0 0 0
0 0 0 0 0 0 0 0 0 0 0 0 0 0 0 0 0 -0 -0 -0 -0 -0 -0 -0 -1 -1 -1 -0 -0 0 0 0 0 0 0 0 1 0 0 0 0 0 0 0 0 0 0 0 0
0 0 0 0 0 0 0 0 0 0 0 0 0 0 0 0 0 0 -0 -0 -0 -0 -1 -0 -1 -1 -1 -0 -0 0 0 0 0 1 1 1 0 0 0 0 0 0 0 0 0 0 0 0 0
0 0 0 0 0 0 0 0 0 0 0 0 0 0 0 0 0 0 0 -0 -0 -1 -1 -1 -1 -1 -1 -1 -0 -0 -0 0 1 1 1 1 0 0 0 0 0 0 0 0 0 0 0 0 0
Wind_Speed_500mb
20 19 6 15 9 3 26 33 28 33 21 33 22 17 10 8 7 16 53 45 41 23 30 32 31 29 33 37 38 34 30 28 26 25 23 23 23 21 19 19 19 13 10 8 8 7 7 9 15
19 14 10 15 7 25 20 29 25 30 46 39 29 27 18 13 30 55 48 38 31 29 25 27 31 31 34 35 34 30 27 23 20 19 20 19 20 20 17 17 16 11 8 6 7 9 9 12 15
18 14 12 10 18 19 22 27 37 50 49 32 33 20 16 43 43 55 33 39 32 29 25 27 30 29 29 28 27 25 22 18 16 17 19 20 21 20 17 16 11 7 8 8 11 12 13 15 17
11 11 19 20 29 28 26 28 32 39 41 22 31 29 34 38 42 36 48 39 36 33 25 30 30 30 28 26 23 20 18 15 15 15 16 17 16 14 12 10 8 8 9 9 13 13 15 16 15
10 19 15 24 28 24 26 27 29 25 20 23 20 37 34 29 32 51 46 40 35 33 27 31 32 29 24 23 21 17 17 14 15 15 15 14 12 11 11 11 9 9 9 10 11 10 13 14 15
16 12 20 22 24 22 18 22 22 18 18 19 29 39 39 28 47 46 41 36 29 39 25 26 30 27 24 18 16 15 15 15 13 15 13 14 13 11 10 10 11 9 8 7 8 10 10 12 13
34 17 21 27 22 21 14 12 8 16 16 16 30 29 33 40 45 44 41 36 33 32 34 25 22 25 23 18 15 13 14 13 12 13 12 14 16 11 7 9 11 12 11 9 9 7 8 11 11
22 9 27 19 20 19 20 8 10 15 19 22 33 27 45 50 51 47 39 39 35 27 28 27 23 19 16 14 15 15 14 14 12 12 12 11 11 9 9 8 11 12 12 10 8 7 8 9 7
20 8 20 30 27 21 17 19 13 9 24 16 12 24 53 55 49 44 40 36 46 33 29 27 22 20 22 15 12 11 10 10 7 5 6 10 10 4 8 6 10 13 15 16 13 11 8 7 7
14 21 23 24 24 23 18 17 18 17 22 20 14 46 52 55 52 47 43 42 38 34 31 31 26 24 23 17 17 13 6 7 6 8 3 6 5 8 2 3 9 17 17 16 17 19 13 6 6
33 20 23 16 27 20 18 21 17 23 16 24 39 56 54 53 48 45 41 39 38 34 32 33 27 25 21 23 13 12 19 16 12 13 13 6 7 7 7 6 8 18 18 15 14 17 25 23 18
30 16 23 17 17 17 10 18 13 0 16 29 36 51 53 50 47 44 39 37 37 35 31 30 28 25 24 18 18 18 9 6 11 10 9 15 11 10 5 10 4 13 13 18 14 15 19 20 18
28 15 21 18 16 16 12 7 13 10 12 21 37 49 51 48 43 41 38 35 35 34 33 29 27 27 26 26 19 16 17 12 13 10 12 12 15 14 10 20 16 16 16 15 24 19 21 17 23
15 6 17 17 10 14 14 17 18 15 16 32 45 52 49 45 43 40 38 35 36 33 34 31 31 30 28 25 21 16 16 10 11 13 11 11 15 16 23 20 23 22 24 22 25 25 24 25 24
14 21 26 19 14 7 20 25 9 22 25 35 46 51 48 44 42 41 38 34 33 34 35 33 30 31 29 25 23 18 16 11 14 9 13 13 10 12 16 19 18 22 20 22 24 32 26 20 18
26 19 7 26 12 10 24 26 22 27 32 37 44 46 45 44 42 39 38 34 31 31 34 32 28 33 29 24 21 20 17 15 19 3 5 7 7 2 6 13 16 18 16 12 13 14 20 17 18
22 22 8 16 13 6 8 8 26 29 32 36 42 44 43 44 42 40 39 37 35 34 33 32 31 32 31 28 23 25 18 18 11 9 5 5 2 2 5 5 10 12 15 13 17 13 20 15 14
38 3 12 7 14 9 12 14 28 31 34 37 41 43 44 45 46 44 42 39 35 36 34 34 30 28 27 26 27 16 20 17 14 15 10 13 7 4 12 6 7 7 5 8 11 10 3 10 8
22 13 10 4 7 13 9 10 23 40 39 40 42 42 44 44 43 43 44 43 40 37 38 38 36 33 28 26 18 17 16 19 19 18 23 12 8 8 14 13 5 6 11 11 9 8 9 10 9
13 21 20 4 9 15 23 20 18 39 38 43 43 43 43 43 45 46 46 46 44 44 41 40 40 37 36 27 25 23 20 21 22 18 18 16 14 8 6 16 11 9 12 14 9 8 4 5 4
29 32 25 17 22 31 29 28 23 31 41 41 43 45 45 47 52 51 51 51 47 46 47 45 44 42 39 30 32 26 23 28 29 27 19 17 12 12 13 10 9 10 11 7 5 3 9 10 6
37 31 17 12 25 25 13 22 26 14 31 34 43 48 50 50 50 56 55 54 53 50 49 48 48 48 43 42 32 32 21 22 23 26 23 20 11 17 8 10 8 8 1 9 8 6 7 11 11
37 35 14 24 29 34 37 19 17 27 18 32 34 44 52 57 56 56 58 57 53 51 51 51 51 52 46 46 39 34 28 22 17 18 18 20 21 15 10 10 7 4 2 15 11 8 10 12 14
42 40 25 32 31 29 36 33 27 16 34 24 41 40 46 57 61 56 54 54 53 51 49 50 52 54 52 49 48 43 35 25 22 20 18 16 14 19 16 12 8 9 10 8 7 13 14 10 13
26 35 29 32 30 29 37 33 33 5 12 9 16 21 41 52 65 62 60 60 57 58 53 49 53 57 56 54 53 46 39 33 27 24 19 20 18 17 20 15 10 8 13 16 13 13 14 14 8
34 34 30 41 33 33 40 38 13 18 29 9 13 16 5 40 63 71 66 61 60 60 58 55 58 55 54 55 56 52 44 32 26 26 24 21 23 21 26 17 14 15 11 9 12 7 2 9 3
38 37 34 41 41 32 35 27 17 8 16 28 22 5 14 29 51 71 72 67 63 61 61 63 65 58 52 50 52 49 47 40 30 30 27 24 21 32 30 16 13 13 13 9 7 6 2 4 5
34 34 28 24 39 39 32 37 23 20 6 10 16 12 14 22 42 62 71 70 67 63 61 61 69 66 57 49 48 47 47 43 38 34 32 26 29 25 20 15 16 16 16 13 9 0 3 5 4
25 30 36 39 26 26 29 28 35 34 19 19 22 15 5 25 40 53 67 71 70 65 64 62 60 59 59 54 49 47 45 43 40 38 32 31 34 26 22 21 18 13 10 8 18 22 9 5 2
24 31 32 27 38 29 30 31 13 7 7 10 11 17 15 17 35 48 62 69 72 69 69 67 64 64 60 56 52 48 46 45 45 42 37 38 34 27 24 22 18 16 12 11 12 16 10 7 8
Wind_Direction_500mb
180 166 157 234 267 170 66 82 115 110 120 117 135 128 130 49 86 132 148 143 134 135 131 125 132 135 130 143 142 140 135 128 133 135 141 151 157 152 141 145 147 140 128 134 144 127 105 128 114
158 168 225 262 243 80 79 109 101 98 112 130 139 147 166 85 110 135 154 146 149 148 133 138 143 141 133 131 142 148 142 141 141 141 145 151 151 148 146 152 149 139 120 103 130 133 108 117 124
165 190 247 228 40 73 84 85 101 115 138 161 107 130 104 118 133 145 154 145 149 135 142 153 147 148 141 140 145 145 143 144 143 134 134 138 143 143 146 150 155 130 98 102 112 117 117 116 129
162 241 251 58 64 57 91 95 115 134 150 124 114 91 91 116 132 143 145 145 144 142 149 147 145 148 148 147 146 150 150 144 139 138 142 144 141 143 143 140 138 115 117 113 110 115 122 121 127
253 264 92 80 75 64 73 100 124 142 135 135 104 126 115 134 137 144 144 148 149 143 154 157 151 153 148 151 150 152 150 148 129 134 137 141 139 141 140 134 132 130 129 128 123 116 126 131 129
270 251 65 73 88 97 104 127 130 130 132 100 119 119 132 140 145 145 147 145 153 147 141 158 155 154 151 158 156 151 145 137 135 129 128 128 132 129 136 149 151 147 142 132 130 122 128 136 131
242 75 81 92 93 92 114 143 114 121 107 151 126 134 148 154 156 153 152 153 149 151 153 151 157 162 155 160 160 148 148 153 146 135 142 139 132 117 135 145 151 154 145 141 135 132 147 150 132
302 332 74 71 85 99 131 153 80 129 94 122 149 142 161 161 158 156 159 161 158 158 158 160 168 169 155 161 166 162 158 159 164 154 151 147 139 72 57 171 159 153 151 140 147 145 155 156 137
265 35 55 46 77 116 138 122 143 81 129 154 172 136 159 160 161 162 164 164 169 159 166 170 170 172 174 174 201 173 165 131 133 141 138 120 161 8 253 148 208 172 171 160 175 169 161 132 90
205 63 53 57 111 118 132 125 126 148 146 134 173 137 154 160 166 169 171 172 174 176 176 178 176 174 173 177 220 179 201 178 129 217 182 143 191 170 74 298 289 203 184 176 189 208 204 165 214
49 75 83 55 83 118 114 115 143 149 164 152 142 152 161 166 172 177 179 181 181 180 184 177 179 173 175 185 189 213 204 173 209 200 188 186 213 192 205 242 359 182 185 199 204 222 220 231 234
100 59 77 99 109 117 150 128 152 323 73 148 163 165 168 175 178 183 185 184 184 185 188 179 183 186 184 195 187 203 216 186 204 214 194 226 198 202 222 219 160 181 213 210 205 221 243 249 259
107 100 93 99 138 128 132 147 98 112 157 157 161 170 175 180 183 187 188 187 187 188 191 192 193 197 196 198 205 202 199 194 196 216 245 231 229 210 221 206 177 192 198 200 214 215 230 235 237
91 103 104 148 127 131 167 145 208 133 174 156 165 173 180 184 185 186 190 191 191 191 195 199 201 203 196 202 198 197 203 199 207 227 240 250 245 245 222 222 195 205 205 211 217 225 246 241 257
151 170 168 140 150 152 238 147 182 145 165 165 171 177 182 187 187 188 190 194 193 195 193 197 198 203 194 200 204 204 210 212 232 201 251 287 293 271 233 213 205 207 215 223 234 241 246 258 259
219 242 166 111 142 142 263 151 130 161 169 173 177 182 185 189 189 189 191 193 190 192 188 196 192 192 197 200 204 212 218 218 227 204 237 311 20 130 207 197 205 216 231 245 253 245 243 240 255
219 213 43 105 142 175 232 70 139 173 178 179 185 185 191 192 193 191 192 193 190 192 191 195 190 189 195 201 211 208 223 222 218 207 214 205 144 141 88 162 199 218 231 223 243 228 250 256 259
260 21 82 30 104 192 223 231 154 187 190 190 191 190 193 196 198 193 193 192 192 192 193 195 194 198 198 204 218 218 225 216 208 213 214 242 208 157 151 177 192 156 223 219 228 232 209 289 294
268 355 311 81 56 288 297 274 182 180 201 195 198 196 194 198 195 194 193 192 192 192 194 196 193 195 197 205 210 203 198 202 203 213 223 221 198 194 170 172 233 166 218 210 228 221 236 236 192
256 268 267 202 155 279 279 281 184 172 200 204 199 198 200 193 186 191 192 191 193 194 195 196 195 198 198 200 203 209 192 204 199 198 212 197 178 185 131 178 201 211 220 230 225 240 274 301 285
256 264 278 315 318 270 258 275 176 173 181 201 203 202 202 198 189 192 195 195 194 194 195 197 196 199 198 195 211 189 194 199 208 191 188 176 178 179 181 221 233 234 224 239 241 265 268 278 300
263 263 337 302 270 284 302 302 224 152 180 189 202 203 202 201 202 188 197 198 198 198 199 199 198 197 202 191 202 194 197 198 206 202 205 210 221 219 210 236 228 241 251 237 272 299 292 302 293
263 288 317 295 281 279 271 255 135 195 185 188 199 206 205 200 203 196 196 199 199 199 202 203 202 201 200 205 196 203 194 196 202 203 213 220 217 203 221 225 239 225 73 274 247 280 276 290 286
265 271 266 257 259 260 265 274 271 127 193 208 175 191 209 206 201 206 196 197 197 197 198 200 202 203 199 207 196 201 205 199 190 190 197 203 204 219 212 215 218 232 240 255 257 280 301 270 260
246 249 251 245 236 245 251 246 255 189 185 323 94 159 189 208 198 202 197 195 196 195 194 194 198 201 201 205 205 201 200 197 198 193 189 198 208 205 233 201 225 267 245 264 265 294 295 300 245
227 244 253 254 258 262 251 245 222 250 273 320 269 163 228 196 203 198 202 198 195 196 194 194 197 199 199 203 205 203 197 202 202 209 203 199 205 210 217 210 228 242 268 284 301 335 13 303 2
250 257 264 274 273 272 279 283 264 259 284 268 257 354 173 205 203 197 200 199 194 197 195 194 201 203 202 199 200 199 200 193 205 211 200 208 198 216 232 220 226 244 266 271 339 259 27 59 77
266 278 263 230 260 271 273 267 264 252 150 289 270 73 148 205 201 199 199 200 195 197 197 196 204 208 205 194 196 197 200 199 201 200 205 201 200 200 221 217 236 248 266 273 157 254 210 149 103
208 237 251 273 281 267 254 255 260 243 194 248 278 111 205 194 195 201 199 200 199 198 198 196 196 194 197 192 193 194 198 201 200 202 200 195 211 219 231 236 236 244 257 229 176 190 231 162 164
289 280 231 236 247 256 281 287 252 329 280 191 348 312 298 221 202 199 198 197 198 196 196 197 197 196 194 192 193 193 193 196 199 199 196 204 214 222 227 229 232 242 229 199 169 138 181 140 121
Wind_Speed_850mb
20 19 6 15 9 3 26 33 28 33 21 33 22 17 10 8 7 16 53 45 41 23 30 32 31 29 33 37 38 34 30 28 26 25 23 23 23 21 19 19 19 13 10 8 8 7 7 9 15
19 14 10 15 7 25 20 29 25 30 46 39 29 27 18 13 30 55 48 38 31 29 25 27 31 31 34 35 34 30 27 23 20 19 20 19 20 20 17 17 16 11 8 6 7 9 9 12 15
18 14 12 10 18 19 22 27 37 50 49 32 33 20 16 43 43 55 33 39 32 29 25 27 30 29 29 28 27 25 22 18 16 17 19 20 21 20 17 16 11 7 8 8 11 12 13 15 17
11 11 19 20 29 28 26 28 32 39 41 22 31 29 34 38 42 36 48 39 36 33 25 30 30 30 28 26 23 20 18 15 15 15 16 17 16 14 12 10 8 8 9 9 13 13 15 16 15
10 19 15 24 28 24 26 27 29 25 20 23 20 37 34 29 32 51 46 40 35 33 27 31 32 29 24 23 21 17 17 14 15 15 15 14 12 11 11 11 9 9 9 10 11 10 13 14 15
16 12 20 22 24 22 18 22 22 18 18 19 29 39 39 28 47 46 41 36 29 39 25 26 30 27 24 18 16 15 15 15 13 15 13 14 13 11 10 10 11 9 8 7 8 10 10 12 13
34 17 21 27 22 21 14 12 8 16 16 16 30 29 33 40 45 44 41 36 33 32 34 25 22 25 23 18 15 13 14 13 12 13 12 14 16 11 7 9 11 12 11 9 9 7 8 11 11
22 9 27 19 20 19 20 8 10 15 19 22 33 27 45 50 51 47 39 39 35 27 28 27 23 19 16 14 15 15 14 14 12 12 12 11 11 9 9 8 11 12 12 10 8 7 8 9 7
20 8 20 30 27 21 17 19 13 9 24 16 12 24 53 55 49 44 40 36 46 33 29 27 22 20 22 15 12 11 10 10 7 5 6 10 10 4 8 6 10 13 15 16 13 11 8 7 7
14 21 23 24 24 23 18 17 18 17 22 20 14 46 52 55 52 47 43 42 38 34 31 31 26 24 23 17 17 13 6 7 6 8 3 6 5 8 2 3 9 17 17 16 17 19 13 6 6
33 20 23 16 27 20 18 21 17 23 16 24 39 56 54 53 48 45 41 39 38 34 32 33 27 25 21 23 13 12 19 16 12 13 13 6 7 7 7 6 8 18 18 15 14 17 25 23 18
30 16 23 17 17 17 10 18 13 0 16 29 36 51 53 50 47 44 39 37 37 35 31 30 28 25 24 18 18 18 9 6 11 10 9 15 11 10 5 10 4 13 13 18 14 15 19 20 18
28 15 21 18 16 16 12 7 13 10 12 21 37 49 51 48 43 41 38 35 35 34 33 29 27 27 26 26 19 16 17 12 13 10 12 12 15 14 10 20 16 16 16 15 24 19 21 17 23
15 6 17 17 10 14 14 17 18 15 16 32 45 52 49 45 43 40 38 35 36 33 34 31 31 30 28 25 21 16 16 10 11 13 11 11 15 16 23 20 23 22 24 22 25 25 24 25 24
14 21 26 19 14 7 20 25 9 22 25 35 46 51 48 44 42 41 38 34 33 34 35 33 30 31 29 25 23 18 16 11 14 9 13 13 10 12 16 19 18 22 20 22 24 32 26 20 18
26 19 7 26 12 10 24 26 22 27 32 37 44 46 45 44 42 39 38 34 31 31 34 32 28 33 29 24 21 20 17 15 19 3 5 7 7 2 6 13 16 18 16 12 13 14 20 17 18
22 22 8 16 13 6 8 8 26 29 32 36 42 44 43 44 42 40 39 37 35 34 33 32 31 32 31 28 23 25 18 18 11 9 5 5 2 2 5 5 10 12 15 13 17 13 20 15 14
38 3 12 7 14 9 12 14 28 31 34 37 41 43 44 45 46 44 42 39 35 36 34 34 30 28 27 26 27 16 20 17 14 15 10 13 7 4 12 6 7 7 5 8 11 10 3 10 8
22 13 10 4 7 13 9 10 23 40 39 40 42 42 44 44 43 43 44 43 40 37 38 38 36 33 28 26 18 17 16 19 19 18 23 12 8 8 14 13 5 6 11 11 9 8 9 10 9
13 21 20 4 9 15 23 20 18 39 38 43 43 43 43 43 45 46 46 46 44 44 41 40 40 37 36 27 25 23 20 21 22 18 18 16 14 8 6 16 11 9 12 14 9 8 4 5 4
29 32 25 17 22 31 29 28 23 31 41 41 43 45 45 47 52 51 51 51 47 46 47 45 44 42 39 30 32 26 23 28 29 27 19 17 12 12 13 10 9 10 11 7 5 3 9 10 6
37 31 17 12 25 25 13 22 26 14 31 34 43 48 50 50 50 56 55 54 53 50 49 48 48 48 43 42 32 32 21 22 23 26 23 20 11 17 8 10 8 8 1 9 8 6 7 11 11
37 35 14 24 29 34 37 19 17 27 18 32 34 44 52 57 56 56 58 57 53 51 51 51 51 52 46 46 39 34 28 22 17 18 18 20 21 15 10 10 7 4 2 15 11 8 10 12 14
42 40 25 32 31 29 36 33 27 16 34 24 41 40 46 57 61 56 54 54 53 51 49 50 52 54 52 49 48 43 35 25 22 20 18 16 14 19 16 12 8 9 10 8 7 13 14 10 13
26 35 29 32 30 29 37 33 33 5 12 9 16 21 41 52 65 62 60 60 57 58 53 49 53 57 56 54 53 46 39 33 27 24 19 20 18 17 20 15 10 8 13 16 13 13 14 14 8
34 34 30 41 33 33 40 38 13 18 29 9 13 16 5 40 63 71 66 61 60 60 58 55 58 55 54 55 56 52 44 32 26 26 24 21 23 21 26 17 14 15 11 9 12 7 2 9 3
38 37 34 41 41 32 35 27 17 8 16 28 22 5 14 29 51 71 72 67 63 61 61 63 65 58 52 50 52 49 47 40 30 30 27 24 21 32 30 16 13 13 13 9 7 6 2 4 5
34 34 28 24 39 39 32 37 23 20 6 10 16 12 14 22 42 62 71 70 67 63 61 61 69 66 57 49 48 47 47 43 38 34 32 26 29 25 20 15 16 16 16 13 9 0 3 5 4
25 30 36 39 26 26 29 28 35 34 19 19 22 15 5 25 40 53 67 71 70 65 64 62 60 59 59 54 49 47 45 43 40 38 32 31 34 26 22 21 18 13 10 8 18 22 9 5 2
24 31 32 27 38 29 30 31 13 7 7 10 11 17 15 17 35 48 62 69 72 69 69 67 64 64 60 56 52 48 46 45 45 42 37 38 34 27 24 22 18 16 12 11 12 16 10 7 8
Wind_Direction_850mb
180 166 157 234 267 170 66 82 115 110 120 117 135 128 130 49 86 132 148 143 134 135 131 125 132 135 130 143 142 140 135 128 133 135 141 151 157 152 141 145 147 140 128 134 144 127 105 128 114
158 168 225 262 243 80 79 109 101 98 112 130 139 147 166 85 110 135 154 146 149 148 133 138 143 141 133 131 142 148 142 141 141 141 145 151 151 148 146 152 149 139 120 103 130 133 108 117 124
165 190 247 228 40 73 84 85 101 115 138 161 107 130 104 118 133 145 154 145 149 135 142 153 147 148 141 140 145 145 143 144 143 134 134 138 143 143 146 150 155 130 98 102 112 117 117 116 129
162 241 251 58 64 57 91 95 115 134 150 124 114 91 91 116 132 143 145 145 144 142 149 147 145 148 148 147 146 150 150 144 139 138 142 144 141 143 143 140 138 115 117 113 110 115 122 121 127
253 264 92 80 75 64 73 100 124 142 135 135 104 126 115 134 137 144 144 148 149 143 154 157 151 153 148 151 150 152 150 148 129 134 137 141 139 141 140 134 132 130 129 128 123 116 126 131 129
270 251 65 73 88 97 104 127 130 130 132 100 119 119 132 140 145 145 147 145 153 147 141 158 155 154 151 158 156 151 145 137 135 129 128 128 132 129 136 149 151 147 142 132 130 122 128 136 131
242 75 81 92 93 92 114 143 114 121 107 151 126 134 148 154 156 153 152 153 149 151 153 151 157 162 155 160 160 148 148 153 146 135 142 139 132 117 135 145 151 154 145 141 135 132 147 150 132
302 332 74 71 85 99 131 153 80 129 94 122 149 142 161 161 158 156 159 161 158 158 158 160 168 169 155 161 166 162 158 159 164 154 151 147 139 72 57 171 159 153 151 140 147 145 155 156 137
265 35 55 46 77 116 138 122 143 81 129 154 172 136 159 160 161 162 164 164 169 159 166 170 170 172 174 174 201 173 165 131 133 141 138 120 161 8 253 148 208 172 171 160 175 169 161 132 90
205 63 53 57 111 118 132 125 126 148 146 134 173 137 154 160 166 169 171 172 174 176 176 178 176 174 173 177 220 179 201 178 129 217 182 143 191 170 74 298 289 203 184 176 189 208 204 165 214
49 75 83 55 83 118 114 115 143 149 164 152 142 152 161 166 172 177 179 181 181 180 184 177 179 173 175 185 189 213 204 173 209 200 188 186 213 192 205 242 359 182 185 199 204 222 220 231 234
100 59 77 99 109 117 150 128 152 323 73 148 163 165 168 175 178 183 185 184 184 185 188 179 183 186 184 195 187 203 216 186 204 214 194 226 198 202 222 219 160 181 213 210 205 221 243 249 259
107 100 93 99 138 128 132 147 98 112 157 157 161 170 175 180 183 187 188 187 187 188 191 192 193 197 196 198 205 202 199 194 196 216 245 231 229 210 221 206 177 192 198 200 214 215 230 235 237
91 103 104 148 127 131 167 145 208 133 174 156 165 173 180 184 185 186 190 191 191 191 195 199 201 203 196 202 198 197 203 199 207 227 240 250 245 245 222 222 195 205 205 211 217 225 246 241 257
151 170 168 140 150 152 238 147 182 145 165 165 171 177 182 187 187 188 190 194 193 195 193 197 198 203 194 200 204 204 210 212 232 201 251 287 293 271 233 213 205 207 215 223 234 241 246 258 259
219 242 166 111 142 142 263 151 130 161 169 173 177 182 185 189 189 189 191 193 190 192 188 196 192 192 197 200 204 212 218 218 227 204 237 311 20 130 207 197 205 216 231 245 253 245 243 240 255
219 213 43 105 142 175 232 70 139 173 178 179 185 185 191 192 193 191 192 193 190 192 191 195 190 189 195 201 211 208 223 222 218 207 214 205 144 141 88 162 199 218 231 223 243 228 250 256 259
260 21 82 30 104 192 223 231 154 187 190 190 191 190 193 196 198 193 193 192 192 192 193 195 194 198 198 204 218 218 225 216 208 213 214 242 208 157 151 177 192 156 223 219 228 232 209 289 294
268 355 311 81 56 288 297 274 182 180 201 195 198 196 194 198 195 194 193 192 192 192 194 196 193 195 197 205 210 203 198 202 203 213 223 221 198 194 170 172 233 166 218 210 228 221 236 236 192
256 268 267 202 155 279 279 281 184 172 200 204 199 198 200 193 186 191 192 191 193 194 195 196 195 198 198 200 203 209 192 204 199 198 212 197 178 185 131 178 201 211 220 230 225 240 274 301 285
256 264 278 315 318 270 258 275 176 173 181 201 203 202 202 198 189 192 195 195 194 194 195 197 196 199 198 195 211 189 194 199 208 191 188 176 178 179 181 221 233 234 224 239 241 265 268 278 300
263 263 337 302 270 284 302 302 224 152 180 189 202 203 202 201 202 188 197 198 198 198 199 199 198 197 202 191 202 194 197 198 206 202 205 210 221 219 210 236 228 241 251 237 272 299 292 302 293
263 288 317 295 281 279 271 255 135 195 185 188 199 206 205 200 203 196 196 199 199 199 202 203 202 201 200 205 196 203 194 196 202 203 213 220 217 203 221 225 239 225 73 274 247 280 276 290 286
265 271 266 257 259 260 265 274 271 127 193 208 175 191 209 206 201 206 196 197 197 197 198 200 202 203 199 207 196 201 205 199 190 190 197 203 204 219 212 215 218 232 240 255 257 280 301 270 260
246 249 251 245 236 245 251 246 255 189 185 323 94 159 189 208 198 202 197 195 196 195 194 194 198 201 201 205 205 201 200 197 198 193 189 198 208 205 233 201 225 267 245 264 265 294 295 300 245
227 244 253 254 258 262 251 245 222 250 273 320 269 163 228 196 203 198 202 198 195 196 194 194 197 199 199 203 205 203 197 202 202 209 203 199 205 210 217 210 228 242 268 284 301 335 13 303 2
250 257 264 274 273 272 279 283 264 259 284 268 257 354 173 205 203 197 200 199 194 197 195 194 201 203 202 199 200 199 200 193 205 211 200 208 198 216 232 220 226 244 266 271 339 259 27 59 77
266 278 263 230 260 271 273 267 264 252 150 289 270 73 148 205 201 199 199 200 195 197 197 196 204 208 205 194 196 197 200 199 201 200 205 201 200 200 221 217 236 248 266 273 157 254 210 149 103
208 237 251 273 281 267 254 255 260 243 194 248 278 111 205 194 195 201 199 200 199 198 198 196 196 194 197 192 193 194 198 201 200 202 200 195 211 219 231 236 236 244 257 229 176 190 231 162 164
289 280 231 236 247 256 281 287 252 329 280 191 348 312 298 221 202 199 198 197 198 196 196 197 197 196 194 192 193 193 193 196 199 199 196 204 214 222 227 229 232 242 229 199 169 138 181 140 121